sat.trackr.live / text

‹ back to catalog

STARLINK-32298

NORAD 61525 · 2024-183S

PAYLOAD ACTIVE UNKNOWN

§ Identity

Operator
Country
US
Launch date
2024-10-15
Launch site
AFETR
Launch vehicle
Mass (kg)
RCS (m²)

Purposes: comms

External: N2YO · Heavens-Above · Gunter

§ Orbital elements

Epoch: 2026-09-21T10:24:16.039872Z

Period
94.01 min
Inclination
53.1627°
Eccentricity
0.0001224
Mean motion
15.31699206 rev/d
Perigee alt
469.9 km
Apogee alt
471.6 km
Semi-major
6,848.9 km
B*
3.6151e-5
RAAN
311.6741°
Arg perigee
99.3696°
Mean anomaly
260.7444°
Rev number
10,964

§ Raw data

STARLINK-322981 61525U 24183S   26264.43351898  .00000757  00000+0  36151-4 0  99962 61525  53.1627 311.6741 0001224  99.3696 260.7444 15.31699206109648

JSON: /api/v1/satellites/61525 · /tle

For live sub-satellite position, see the globe view (requires WebGL).

§ Visibility from observer

Set your observer location to see the next 7 days of passes ≥ 10°. The values pass through the URL so the page stays shareable.

No JS? Fill the form by hand. The geolocation button needs JavaScript.